Location: Newark
(44.1667°N, 8.2500°E)
Time: 05:14:51
(UTC+00:00)

S-56A Canister/Altair - Pass Details

Date: 12 December 2019
Orbit: 634 x 2498 km, 38.9° (Epoch: 27 January)

Event Time Altitude Azimuth Distance (km) Brightness Sun altitude
Rises 08:46:46 0° 228° (SW) 5,452 11.9 14.1°
Reaches altitude 10° 08:50:09 10° 224° (SW) 4,650 11.7 14.5°
Maximum altitude 09:03:12 53° 153° (SSE) 2,876 11.4 15.8°
Drops below altitude 10° 09:17:26 10° 83° (E) 5,049 12.1 17.1°
Sets 09:21:16 0° 79° (E) 5,937 12.3 17.4°
